Year,Month,Day,Hour,Minute,Value (Times are PST for temperature in C)
2009,11,01,00,00,8.20
2009,11,01,00,01,8.20
2009,11,01,00,02,8.20
2009,11,01,00,03,8.20
2009,11,01,00,04,8.20
2009,11,01,00,05,8.10
2009,11,01,00,06,8.10
2009,11,01,00,07,8.10
2009,11,01,00,08,8.10
2009,11,01,00,09,8.10
2009,11,01,00,10,8.10
2009,11,01,00,11,8.10
2009,11,01,00,12,8.10
2009,11,01,00,13,8.10
2009,11,01,00,14,8.10
2009,11,01,00,15,8.10
2009,11,01,00,16,8.10
2009,11,01,00,17,8.10
2009,11,01,00,18,8.00
2009,11,01,00,19,8.00
2009,11,01,00,20,8.00
2009,11,01,00,21,8.00
2009,11,01,00,22,7.90
2009,11,01,00,23,7.90
2009,11,01,00,24,7.90
2009,11,01,00,25,7.90
2009,11,01,00,26,7.90
2009,11,01,00,27,7.80
2009,11,01,00,28,7.80
2009,11,01,00,29,7.80
2009,11,01,00,30,7.80
2009,11,01,00,31,7.80
2009,11,01,00,32,7.80
2009,11,01,00,33,7.80
2009,11,01,00,34,7.80
2009,11,01,00,35,7.80
2009,11,01,00,36,7.80
2009,11,01,00,37,7.80
2009,11,01,00,38,7.80
2009,11,01,00,39,7.70
2009,11,01,00,40,7.70
2009,11,01,00,41,7.70
2009,11,01,00,42,7.70
2009,11,01,00,43,7.60
2009,11,01,00,44,7.60
2009,11,01,00,45,7.60
2009,11,01,00,46,7.60
2009,11,01,00,47,7.60
2009,11,01,00,48,7.60
2009,11,01,00,49,7.60
2009,11,01,00,50,7.60
2009,11,01,00,51,7.60
2009,11,01,00,52,7.60
2009,11,01,00,53,7.60
2009,11,01,00,54,7.50
2009,11,01,00,55,7.50
2009,11,01,00,56,7.60
2009,11,01,00,57,7.60
2009,11,01,00,58,7.60
2009,11,01,00,59,7.60
2009,11,01,01,00,7.60
2009,11,01,01,01,7.60
2009,11,01,01,02,7.60
2009,11,01,01,03,7.60
2009,11,01,01,04,7.50
2009,11,01,01,05,7.50
2009,11,01,01,06,7.50
2009,11,01,01,07,7.50
2009,11,01,01,08,7.50
2009,11,01,01,09,7.50
2009,11,01,01,10,7.50
2009,11,01,01,11,7.40
2009,11,01,01,12,7.40
2009,11,01,01,13,7.40
2009,11,01,01,14,7.40
2009,11,01,01,15,7.40
2009,11,01,01,16,7.50
2009,11,01,01,17,7.50
2009,11,01,01,18,7.50
2009,11,01,01,19,7.50
2009,11,01,01,20,7.60
2009,11,01,01,21,7.60
2009,11,01,01,22,7.60
2009,11,01,01,23,7.60
2009,11,01,01,24,7.60
2009,11,01,01,25,7.60
2009,11,01,01,26,7.60
2009,11,01,01,27,7.60
2009,11,01,01,28,7.70
2009,11,01,01,29,7.70
2009,11,01,01,30,7.70
2009,11,01,01,31,7.70
2009,11,01,01,32,7.80
2009,11,01,01,33,7.80
2009,11,01,01,34,7.80
2009,11,01,01,35,7.80
2009,11,01,01,36,7.80
2009,11,01,01,37,7.80
2009,11,01,01,38,7.80
2009,11,01,01,39,7.80
2009,11,01,01,40,7.90
2009,11,01,01,41,7.90
2009,11,01,01,42,7.90
2009,11,01,01,43,7.90
2009,11,01,01,44,7.90
2009,11,01,01,45,7.90
2009,11,01,01,46,8.00
2009,11,01,01,47,8.00
2009,11,01,01,48,8.00
2009,11,01,01,49,8.00
2009,11,01,01,50,8.00
2009,11,01,01,51,8.00
2009,11,01,01,52,8.00
2009,11,01,01,53,8.00
2009,11,01,01,54,8.00
2009,11,01,01,55,8.00
2009,11,01,01,56,8.00
2009,11,01,01,57,8.00
2009,11,01,01,58,8.00
2009,11,01,01,59,8.00
